Weather in Sergeevka

Russia / Khabarovsk Krai     48°28′22″N   135°23′08″E
temp.,
°C
wind,
m/s
gust,
m/s
humid.,
%
clouds,
%
prec.,
mm/h
press.,
hPa
HPBL,
m
23 january, sat
sat2301:00−23sw47860 0.0 1027127
04:00−23sw47870 0.0 1028132
07:00−23sw47870 0.0 1029141
10:00−23ssw48860 0.0 1030196
13:00−18sw47800 0.0 1029344
16:00−17ssw358610 0.0 1028226
19:00−20ssw339214 0.0 103038
22:00−19ssw379041 0.0 1029142
24 january, sun
sun2401:00−17s3989100 0.0 1028215
04:00−18ssw3489100 0.0 102771
07:00−19ssw239064 0.0 102638
10:00−18sw479046 0.0 1027185
13:00−14sw478581 0.0 1027378
16:00−13sw238990 0.0 1028174
19:00−16w1191100 0.0 103028
22:00−16s229199 0.0 103025
25 january, mon
mon2501:00−17ssw229290 0.0 103131
04:00−17sw129390 0.0 103227
07:00−18ssw1193100 0.0 103222
10:00−17sse119494 0.0 103326
13:00−14nne128771 0.0 1032290
16:00−14nne129085 0.0 1032184
19:00−17ne339477 0.0 103154
22:00−18nne379688 0.0 1030154
26 january, tue
tue2601:00−18ne4996100 0.0 1027235
04:00−18nne4794100 0.0 1024245
07:00−17ne3596100 0.3 1021218
10:00−16ne3596100 2.9 1020173
13:00−14nne4596100 1.8 1016187
16:00−14nne3595100 3.0 1015182
19:00−16nne3496100 0.3 1015104
22:00−18nne2397100 0.3 101558
27 january, wed
wed2701:00−18n2298100 0.1 101645
04:00−19nne2398100 0.3 101572
07:00−22n2299100 0.1 101525
10:00−21ene2299100 0.3 1015107
13:00−18wnw3689100 0.1 1015636
16:00−18wnw3591100 0.3 1016665
19:00−21wsw2595100 0.1 1018158
22:00−24wsw229589 0.2 101922